sat.trackr.live / text

‹ back to catalog

STARLINK-31751

NORAD 59574 · 2024-076L

PAYLOAD ACTIVE UNKNOWN

§ Identity

Operator
Country
US
Launch date
2024-04-23
Launch site
AFETR
Launch vehicle
Mass (kg)
RCS (m²)

Purposes: comms

External: N2YO · Heavens-Above · Gunter

§ Orbital elements

Epoch: 2026-05-24T19:55:04.797696Z

Period
94.27 min
Inclination
43.0013°
Eccentricity
0.0001623
Mean motion
15.27575322 rev/d
Perigee alt
481.9 km
Apogee alt
484.2 km
Semi-major
6,861.2 km
B*
4.5432e-5
RAAN
299.3314°
Arg perigee
265.2467°
Mean anomaly
94.8199°
Rev number
11,814

§ Raw data

STARLINK-317511 59574U 24076L   26144.82991664  .00000988  00000+0  45432-4 0  99972 59574  43.0013 299.3314 0001623 265.2467  94.8199 15.27575322118142

JSON: /api/v1/satellites/59574 · /tle

For live sub-satellite position, see the globe view (requires WebGL).

§ Visibility from observer

Set your observer location to see the next 7 days of passes ≥ 10°. The values pass through the URL so the page stays shareable.

No JS? Fill the form by hand. The geolocation button needs JavaScript.